EN

Hourly Weather Bolshoe Galcevo

Today, 25 October, Sunday

Time Temperature Precipitation Wind Pressure Humidity
00:00 +5°C° 0 mm 3 mps 740 mmHg 94%
01:00 +5°C° 0 mm 3 mps 740 mmHg 94%
02:00 +5°C° 0 mm 4 mps 740 mmHg 93%
03:00 +6°C° 0 mm 4 mps 740 mmHg 94%
04:00 +6°C° 0 mm 4 mps 740 mmHg 94%
05:00 +6°C° 0 mm 4 mps 740 mmHg 94%
06:00 +7°C° 0 mm 4 mps 741 mmHg 94%
07:00 +7°C° 0 mm 4 mps 741 mmHg 94%
08:00 +9°C° 0 mm 3 mps 742 mmHg 93%
09:00 +8°C° 0 mm 4 mps 742 mmHg 90%
10:00 +10°C° 0 mm 4 mps 743 mmHg 87%
11:00 +10°C° 0 mm 4 mps 743 mmHg 83%
12:00 +11°C° 0 mm 3 mps 743 mmHg 82%
13:00 +11°C° 0 mm 3 mps 744 mmHg 80%
14:00 +11°C° 0 mm 3 mps 744 mmHg 79%
15:00 +11°C° 0 mm 3 mps 744 mmHg 82%
16:00 +10°C° 0 mm 2 mps 744 mmHg 85%
17:00 +9°C° 0 mm 2 mps 744 mmHg 89%
18:00 +10°C° 0 mm 1 mps 744 mmHg 89%
19:00 +10°C° 0 mm 1 mps 745 mmHg 89%
20:00 +8°C° 0 mm 0 mps 745 mmHg 90%
21:00 +9°C° 0 mm 1 mps 745 mmHg 91%
22:00 +9°C° 0 mm 1 mps 745 mmHg 92%
23:00 +7°C° 0 mm 2 mps 745 mmHg 93%

Tomorrow, 26 October, Monday

Time Temperature Precipitation Wind Pressure Humidity
00:00 +7°C° 0 mm 2 mps 746 mmHg 94%
01:00 +7°C° 0 mm 2 mps 746 mmHg 95%
02:00 +7°C° 0 mm 2 mps 746 mmHg 95%
03:00 +6°C° 0 mm 2 mps 746 mmHg 96%
04:00 +6°C° 0 mm 2 mps 746 mmHg 96%
05:00 +6°C° 0 mm 2 mps 746 mmHg 96%
06:00 +6°C° 0 mm 2 mps 746 mmHg 96%
07:00 +7°C° 0 mm 3 mps 746 mmHg 96%
08:00 +7°C° 0 mm 3 mps 746 mmHg 96%
09:00 +8°C° 0 mm 3 mps 746 mmHg 92%
10:00 +8°C° 0 mm 4 mps 746 mmHg 89%
11:00 +11°C° 0 mm 4 mps 746 mmHg 85%
12:00 +10°C° 0 mm 5 mps 746 mmHg 84%
13:00 +10°C° 0 mm 5 mps 746 mmHg 83%
14:00 +12°C° 0 mm 5 mps 746 mmHg 81%
15:00 +10°C° 0 mm 5 mps 746 mmHg 84%
16:00 +9°C° 0 mm 5 mps 745 mmHg 87%
17:00 +9°C° 0 mm 5 mps 745 mmHg 89%
18:00 +8°C° 0 mm 5 mps 745 mmHg 90%
19:00 +8°C° 0 mm 5 mps 745 mmHg 91%
20:00 +8°C° 0 mm 6 mps 745 mmHg 92%
21:00 +7°C° 0 mm 5 mps 745 mmHg 92%
22:00 +7°C° 0 mm 5 mps 745 mmHg 92%
23:00 +7°C° 0 mm 5 mps 745 mmHg 93%

Day after tomorrow, 27 October, Tuesday

Time Temperature Precipitation Wind Pressure Humidity
00:00 +7°C° 0 mm 5 mps 745 mmHg 93%
01:00 +7°C° 0 mm 5 mps 745 mmHg 92%
02:00 +6°C° 0 mm 5 mps 745 mmHg 92%
03:00 +6°C° 0 mm 5 mps 745 mmHg 92%
04:00 +6°C° 0 mm 5 mps 745 mmHg 92%
05:00 +6°C° 0 mm 5 mps 745 mmHg 91%
06:00 +6°C° 0 mm 5 mps 745 mmHg 91%
07:00 +5°C° 0 mm 6 mps 745 mmHg 90%
08:00 +5°C° 0 mm 6 mps 745 mmHg 89%
09:00 +7°C° 0 mm 6 mps 745 mmHg 84%
10:00 +9°C° 0 mm 6 mps 745 mmHg 79%
11:00 +10°C° 0 mm 6 mps 746 mmHg 74%
12:00 +10°C° 0 mm 6 mps 746 mmHg 73%
13:00 +11°C° 0 mm 6 mps 745 mmHg 71%
14:00 +11°C° 0 mm 6 mps 745 mmHg 70%
15:00 +10°C° 0 mm 6 mps 745 mmHg 73%
16:00 +10°C° 0 mm 6 mps 745 mmHg 76%
17:00 +9°C° 0 mm 5 mps 745 mmHg 79%
18:00 +9°C° 0 mm 5 mps 745 mmHg 79%
19:00 +8°C° 0 mm 5 mps 745 mmHg 79%
20:00 +8°C° 0 mm 5 mps 745 mmHg 80%
21:00 +8°C° 0 mm 5 mps 745 mmHg 80%
22:00 +7°C° 0 mm 5 mps 745 mmHg 80%
23:00 +7°C° 0 mm 5 mps 745 mmHg 80%

28 October, Wednesday

Time Temperature Precipitation Wind Pressure Humidity
00:00 +7°C° 0 mm 5 mps 745 mmHg 81%
01:00 +7°C° 0 mm 5 mps 745 mmHg 82%
02:00 +6°C° 0 mm 5 mps 745 mmHg 82%
03:00 +6°C° 0 mm 5 mps 745 mmHg 83%
04:00 +6°C° 0 mm 5 mps 745 mmHg 84%
05:00 +6°C° 0 mm 5 mps 745 mmHg 85%
06:00 +6°C° 0 mm 5 mps 745 mmHg 86%
07:00 +6°C° 0 mm 5 mps 745 mmHg 86%
08:00 +6°C° 0 mm 5 mps 745 mmHg 86%
09:00 +7°C° 0 mm 5 mps 746 mmHg 83%
10:00 +8°C° 0 mm 5 mps 746 mmHg 80%
11:00 +9°C° 0 mm 6 mps 746 mmHg 78%
12:00 +10°C° 0 mm 6 mps 746 mmHg 77%
13:00 +11°C° 0 mm 6 mps 746 mmHg 75%
14:00 +12°C° 0 mm 5 mps 746 mmHg 74%
15:00 +10°C° 0 mm 5 mps 746 mmHg 77%
16:00 +10°C° 0 mm 5 mps 746 mmHg 79%
17:00 +10°C° 0 mm 4 mps 746 mmHg 81%
18:00 +8°C° 0 mm 5 mps 746 mmHg 81%
19:00 +8°C° 0 mm 5 mps 746 mmHg 82%
20:00 +8°C° 0 mm 5 mps 746 mmHg 82%
21:00 +7°C° 0 mm 5 mps 746 mmHg 83%
22:00 +7°C° 0 mm 5 mps 746 mmHg 84%
23:00 +6°C° 0 mm 4 mps 746 mmHg 85%

29 October, Thursday

Time Temperature Precipitation Wind Pressure Humidity
00:00 +6°C° 0 mm 4 mps 746 mmHg 86%
01:00 +6°C° 0 mm 4 mps 746 mmHg 87%
02:00 +5°C° 0 mm 4 mps 746 mmHg 88%
03:00 +5°C° 0 mm 4 mps 746 mmHg 89%
04:00 +5°C° 0 mm 4 mps 745 mmHg 89%
05:00 +5°C° 0 mm 4 mps 745 mmHg 90%
06:00 +4°C° 0 mm 4 mps 745 mmHg 89%
07:00 +4°C° 0 mm 4 mps 745 mmHg 88%
08:00 +4°C° 0 mm 4 mps 745 mmHg 86%
09:00 +6°C° 0 mm 4 mps 746 mmHg 82%
10:00 +7°C° 0 mm 5 mps 746 mmHg 78%
11:00 +8°C° 0 mm 5 mps 746 mmHg 73%
12:00 +8°C° 0 mm 4 mps 745 mmHg 72%
13:00 +10°C° 0 mm 4 mps 745 mmHg 71%
14:00 +10°C° 0 mm 4 mps 745 mmHg 69%
15:00 +8°C° 0 mm 4 mps 745 mmHg 73%
16:00 +7°C° 0 mm 4 mps 745 mmHg 77%
17:00 +7°C° 0 mm 3 mps 745 mmHg 81%
18:00 +7°C° 0 mm 3 mps 745 mmHg 80%
19:00 +6°C° 0 mm 4 mps 745 mmHg 80%
20:00 +6°C° 0 mm 4 mps 745 mmHg 80%
21:00 +7°C° 0 mm 3 mps 745 mmHg 81%
22:00 +7°C° 0 mm 3 mps 745 mmHg 81%
23:00 +7°C° 0 mm 3 mps 745 mmHg 82%

30 October, Friday

Time Temperature Precipitation Wind Pressure Humidity
00:00 +7°C° 0 mm 3 mps 745 mmHg 83%
01:00 +7°C° 0 mm 3 mps 745 mmHg 85%
02:00 +7°C° 0 mm 2 mps 745 mmHg 86%
03:00 +8°C° 0.1 mm 2 mps 745 mmHg 89%
04:00 +8°C° 0.1 mm 2 mps 745 mmHg 91%
05:00 +8°C° 0.1 mm 2 mps 745 mmHg 94%
06:00 +8°C° 0.2 mm 2 mps 745 mmHg 95%
07:00 +8°C° 0.2 mm 2 mps 745 mmHg 95%
08:00 +8°C° 0.2 mm 3 mps 745 mmHg 96%
09:00 +9°C° 0.1 mm 3 mps 745 mmHg 91%
10:00 +10°C° 0.1 mm 3 mps 746 mmHg 87%
11:00 +11°C° 0.1 mm 3 mps 746 mmHg 83%
12:00 +11°C° 0 mm 3 mps 746 mmHg 80%
13:00 +11°C° 0 mm 3 mps 746 mmHg 77%
14:00 +12°C° 0 mm 3 mps 746 mmHg 74%
15:00 +11°C° 0 mm 3 mps 745 mmHg 78%
16:00 +10°C° 0 mm 3 mps 745 mmHg 82%
17:00 +9°C° 0 mm 3 mps 745 mmHg 87%
18:00 +9°C° 0 mm 3 mps 745 mmHg 86%
19:00 +7°C° 0 mm 4 mps 745 mmHg 86%
20:00 +7°C° 0 mm 4 mps 745 mmHg 85%
21:00 +8°C° 0 mm 4 mps 745 mmHg 84%
22:00 +8°C° 0 mm 4 mps 745 mmHg 83%
23:00 +8°C° 0 mm 5 mps 745 mmHg 82%
Show more